Left ArrowRight Arrow

40.95324, -117.48929

Hourly Observations for April 27, 2021

Temp ( °F °C ) Dew Point ( °F °C ) Humidity (%) Winds ( mph kmh ) Pressure ( in mb ) Visibility ( mi km ) Precip ( " mm )
12:56 am 00:56 Clear 32 0 28 -2.2 85 85 Calm 29.88 1012 10 16 0.00 0.00
1:56 am 01:56 Mostly Clear 30 -1.1 26 -3.3 85 85 Calm 29.90 1013 10 16 0.00 0.00
2:56 am 02:56 Mostly Clear 32 0 28 -2.2 85 85 Calm 29.88 1012 10 16 0.00 0.00
3:56 am 03:56 Mostly Cloudy 28 -2.2 26 -3.3 92 92 Calm 29.90 1013 10 16 0.00 0.00
4:06 am 04:06 Mostly Cloudy 29 -1.7 26 -3.3 89 89 Calm 30.04 1017 10 16 0.00 0.00
4:56 am 04:56 Mostly Cloudy 28 -2.2 25 -3.9 88 88 Calm 29.91 1013 10 16 0.00 0.00
5:13 am 05:13 Partly Cloudy 29 -1.7 25 -3.9 85 85 Calm 30.05 1018 10 16 0.00 0.00
5:56 am 05:56 Sunny 27 -2.8 24 -4.4 89 89 WNW 3 6 29.92 1013 10 16 0.00 0.00
6:28 am 06:28 Mostly Cloudy 31 -0.6 28 -2.2 89 89 NNE 3 6 30.06 1018 10 16 0.00 0.00
6:40 am 06:40 Cloudy 31 -0.6 28 -2.2 89 89 Calm 30.07 1018 10 16 0.00 0.00
6:56 am 06:56 Cloudy 31 -0.6 28 -2.2 89 89 Calm 29.96 1015 10 16 0.00 0.00
7:12 am 07:12 Cloudy 32 0 28 -2 87 87 Calm 30.08 1019 10 16 0.00 0.00
7:56 am 07:56 Cloudy with Light Snow 33 0.6 29 -1.7 85 85 N 3 6 30.01 1016 3 5 0.00 0.00
8:01 am 08:01 Cloudy with Light Snow 33 0.6 30 -1.1 89 89 N 3 6 30.10 1019 2 3 0.00 0.00
8:08 am 08:08 Cloudy with Light Snow 33 0.6 30 -1.1 89 89 N 3 6 30.10 1019 2 2 0.00 0.00
8:18 am 08:18 Cloudy with Light Snow 34 1.1 31 -0.6 89 89 N 3 6 30.10 1019 1 2 0.00 0.00
8:23 am 08:23 Cloudy with Light Snow 34 1 30 -1 87 87 NNE 6 9 30.10 1019 2 3 0.00 0.00
8:36 am 08:36 Cloudy with Light Snow 35 1.7 32 0 89 89 NE 8 13 30.10 1019 2 2 0.00 0.00
8:49 am 08:49 Cloudy with Light Snow 36 2.2 33 0.6 89 89 NE 7 11 30.09 1019 2 3 0.00 0.00
8:53 am 08:53 Cloudy with Light Snow 36 2 34 1 93 93 NE 6 9 30.09 1019 4 6 0.00 0.00
8:56 am 08:56 Cloudy with Light Snow 36 2.2 34 1.1 93 93 NE 7 11 30.04 1017 6 10 0.00 0.00
9:56 am 09:56 Cloudy 40 4.4 35 1.7 83 83 NE 6 9 30.05 1018 10 16 0.00 0.00
10:15 am 10:15 Cloudy 43 6 34 1 71 71 Calm 30.06 1018 10 16 0.00 0.00
10:35 am 10:35 Mostly Cloudy 43 6.1 33 0.6 68 68 NNE 5 7 30.05 1018 10 16 0.00 0.00
10:56 am 10:56 Mostly Cloudy 46 7.8 34 1.1 63 63 NE 8 13 30.06 1018 10 16 0.00 0.00
11:27 am 11:27 Partly Cloudy 48 9 32 0 54 54 N 9 15 30.02 1016 10 16 0.00 0.00
11:56 am 11:56 Mostly Sunny 50 10 31 -0.6 48 48 N 9 15 30.06 1018 10 16 0.00 0.00
12:56 pm 12:56 Mostly Cloudy 50 10 25 -3.9 38 38 NNE 6 9 30.07 1018 10 16 0.00 0.00
1:56 pm 13:56 Mostly Cloudy 53 11.7 27 -2.8 37 37 E 9 15 30.06 1018 10 16 0.00 0.00
2:56 pm 14:56 Mostly Cloudy 56 13.3 25 -3.9 30 30 undefined N/A 30.06 1018 10 16 0.00 0.00
3:56 pm 15:56 Mostly Cloudy 59 15 25 -3.9 27 27 N 8 13 30.06 1018 10 16 0.00 0.00
4:56 pm 16:56 Mostly Sunny 56 13.3 21 -6.1 26 26 NW 6 9 30.08 1019 10 16 0.00 0.00
5:56 pm 17:56 Sunny 57 13.9 24 -4.4 28 28 NNW 7 11 30.10 1019 10 16 0.00 0.00
6:56 pm 18:56 Mostly Sunny 56 13.3 24 -4.4 29 29 NW 6 9 30.10 1019 10 16 0.00 0.00
7:56 pm 19:56 Clear 48 8.9 26 -3.3 42 42 NW 7 11 30.14 1021 10 16 0.00 0.00
8:56 pm 20:56 Clear 40 4.4 24 -4.4 53 53 W 5 7 30.18 1022 10 16 0.00 0.00
9:56 pm 21:56 Clear 38 3.3 24 -4.4 57 57 W 7 11 30.20 1023 10 16 0.00 0.00
10:56 pm 22:56 Clear 38 3.3 24 -4.4 57 57 WNW 7 11 30.21 1023 10 16 0.00 0.00
11:56 pm 23:56 Clear 35 1.7 24 -4.4 64 64 Calm 30.22 1023 10 16 0.00 0.00

Powered by Vaisala Xweather